GFSFLT2_sfc_rhum_000.txt.gz
RH
95 93 88 89 90 90 92 94 94 93 91 94 94 93 91 86 83 80 78 78 79 82 83 86 86 87 89 92 94 94 97 98
93 92 91 92 93 92 93 93 95 94 90 90 91 92 88 84 82 81 78 81 82 81 82 83 81 81 83 87 88 93 97 97
92 92 90 89 87 89 90 90 94 96 92 90 92 95 92 91 83 81 82 82 80 81 82 83 83 83 83 83 85 96 92 95
94 93 92 89 73 90 94 93 97 99 98 97 96 94 94 88 87 82 80 80 82 84 82 81 81 91 94 88 94 93 94 93
95 94 94 93 90 95 98 98 98 98 98 98 97 98 97 98 98 98 97 90 97 95 96 98 94 96 97 98 97 96 98 96
94 95 96 95 97 97 96 97 98 98 97 96 98 99 97 98 99 98 99 98 97 98 99 98 97 95 95 95 95 97 99 100
85 91 93 89 93 96 96 97 97 97 97 95 97 97 97 97 98 98 99 98 99 98 96 93 90 89 92 95 94 96 97 98
83 89 91 86 81 81 86 92 94 96 96 96 92 97 97 98 98 98 98 98 97 94 89 86 87 88 87 80 79 84 91 90
79 86 88 85 79 78 79 80 79 82 87 86 86 93 97 96 98 99 98 97 88 91 85 86 80 78 72 76 77 77 86 77
78 70 84 84 84 84 83 81 80 76 80 85 87 91 89 88 94 96 96 92 92 93 67 66 71 72 74 71 69 66 64 60
69 69 78 74 78 84 84 80 82 75 77 84 85 86 84 81 82 84 86 79 80 83 68 71 68 65 62 63 65 64 62 55
53 62 70 66 64 63 62 61 61 72 70 72 80 82 82 82 81 81 80 77 76 75 70 75 71 66 55 58 66 66 68 64
40 46 48 52 54 54 56 55 53 57 60 62 68 76 80 80 76 79 84 76 66 72 73 71 73 76 69 66 69 70 67 63
39 37 39 42 48 50 53 52 53 54 56 57 60 64 70 75 73 68 74 75 77 74 74 76 74 79 68 78 65 63 64 67
40 39 40 44 48 52 52 55 55 54 49 54 51 58 58 70 68 68 66 72 68 67 70 72 65 82 79 66 82 74 79 68
44 45 46 46 52 54 57 57 58 54 57 54 50 57 63 61 69 73 68 65 68 72 66 73 74 78 82 76 72 73 57 53
64 58 55 56 57 61 65 62 68 68 66 69 66 67 70 67 66 66 74 74 76 73 76 77 64 68 59 67 68 79 78 65
59 56 54 56 59 61 64 66 64 64 57 71 75 80 80 78 78 80 78 75 70 68 64 60 65 64 65 67 68 60 59 67
59 60 58 60 65 56 55 58 61 60 56 63 76 83 80 82 78 78 80 82 81 77 79 77 79 83 76 76 72 75 75 76
67 65 64 68 64 53 57 60 63 61 64 71 84 80 83 90 91 88 87 88 89 87 89 90 93 95 93 91 91 85 83 75

GFSFLT2_sfc_rhum_003.txt.gz
RH
70 66 74 91 91 90 92 93 93 92 92 92 93 94 91 86 84 80 78 81 82 81 84 85 85 85 85 88 92 93 73 76
71 70 62 67 67 93 93 93 94 92 89 88 90 90 86 84 79 78 80 82 82 82 82 82 82 83 85 85 86 83 64 68
69 69 63 63 63 70 84 90 93 94 86 87 83 66 67 67 80 80 80 80 81 80 79 79 76 78 81 82 77 51 52 52
66 69 67 65 55 67 71 71 69 75 74 76 68 75 71 72 78 85 84 84 84 84 84 81 65 52 56 70 54 61 55 56
64 71 73 67 58 62 62 62 68 72 83 80 78 76 76 73 72 69 73 81 67 70 71 72 76 73 70 69 63 60 53 55
67 70 76 77 66 64 64 63 66 68 72 81 80 75 78 77 70 71 78 74 77 77 79 78 73 72 68 67 62 56 46 50
68 74 78 78 78 71 72 72 68 70 72 76 75 72 75 71 71 71 74 75 74 76 69 56 53 52 57 54 50 51 54 39
66 68 72 70 65 72 68 69 70 71 71 74 80 75 75 70 70 69 70 71 71 73 59 50 50 53 54 48 46 45 48 46
61 64 67 71 64 59 56 54 59 61 64 73 74 74 71 74 71 72 69 71 78 65 57 54 50 50 49 48 48 46 44 42
54 55 59 66 64 58 55 53 57 54 54 56 64 66 67 70 67 69 66 74 72 64 56 48 41 42 42 38 38 39 41 40
49 58 56 58 58 54 58 62 56 52 54 50 57 62 66 67 62 62 68 64 69 63 55 52 39 41 38 38 39 35 39 31
47 49 52 57 50 49 42 42 42 45 44 45 51 50 62 64 60 65 63 57 59 59 58 48 42 40 31 32 39 37 37 38
42 41 44 43 36 37 35 37 36 36 34 41 46 44 53 59 56 59 62 60 58 58 56 58 48 49 46 41 40 44 44 37
36 35 37 36 34 37 40 41 38 38 41 44 44 46 45 47 56 54 55 56 63 64 63 53 49 50 43 41 41 37 40 42
35 36 39 43 44 37 38 40 39 36 32 33 35 45 45 48 51 53 56 57 59 61 63 62 51 49 53 42 44 42 34 42
44 43 40 41 44 41 45 39 38 39 41 37 40 46 49 48 52 55 57 57 60 60 54 62 60 52 53 49 54 48 43 40
48 44 44 47 42 45 44 48 46 44 43 45 46 47 51 53 54 58 60 56 59 62 63 64 56 58 52 53 54 45 47 37
51 46 44 48 45 45 52 56 55 50 48 46 44 46 52 56 54 58 58 58 60 58 60 62 60 56 52 51 45 44 38 43
48 47 46 50 54 47 52 56 56 51 49 47 51 50 51 57 58 60 58 60 61 61 66 69 68 69 75 79 76 80 78 78
51 49 48 50 56 50 53 55 50 50 50 52 54 55 57 64 59 55 60 62 64 65 67 71 73 78 87 90 91 91 93 92

GFSFLT2_sfc_rhum_006.txt.gz
RH
38 39 60 88 89 88 90 90 88 86 87 87 90 90 86 83 81 77 78 79 79 78 80 81 81 80 80 83 86 84 50 46
41 45 40 44 45 86 88 88 90 86 84 83 86 85 81 79 72 76 78 77 78 78 79 78 79 80 79 78 77 72 44 44
45 41 44 44 40 53 78 84 87 88 78 82 76 44 49 50 78 77 78 77 78 77 76 72 70 76 78 77 77 37 41 36
43 50 48 47 36 46 46 45 42 49 50 57 46 56 54 57 68 80 78 78 75 77 79 80 68 33 35 62 35 43 37 37
43 53 55 51 40 37 34 34 40 43 57 59 55 57 53 50 48 45 49 66 42 47 46 39 49 45 38 43 40 41 30 30
42 48 56 58 39 35 37 38 39 41 44 61 57 50 52 53 46 43 45 42 51 45 44 53 47 41 40 41 39 33 24 27
45 49 54 49 54 42 45 47 40 46 45 47 53 49 51 46 45 41 41 41 42 46 44 40 35 32 33 35 32 34 35 26
46 49 51 43 44 49 44 42 39 39 38 40 52 53 49 43 40 36 35 34 38 41 41 38 32 31 31 35 33 31 31 33
45 47 42 44 42 39 35 31 36 33 33 41 45 47 44 46 38 37 35 36 45 46 47 42 36 28 31 32 32 34 30 32
40 39 36 39 37 35 32 30 35 32 33 36 44 46 47 47 39 38 37 41 38 40 40 38 36 31 30 27 28 28 30 32
39 38 28 30 36 33 36 40 32 25 30 28 34 38 42 45 39 38 43 40 40 39 40 40 39 32 28 28 29 27 28 22
35 30 32 36 33 35 27 28 27 27 26 26 31 30 38 40 38 44 44 43 42 39 45 40 38 37 24 23 28 29 28 27
30 33 35 28 25 26 24 26 25 26 26 33 36 34 35 40 36 39 41 41 44 50 48 49 46 40 40 34 32 33 37 30
30 27 29 28 24 28 31 34 29 30 28 32 30 33 32 32 37 37 38 38 44 46 51 50 47 44 45 40 39 31 30 33
29 30 32 34 31 26 26 27 27 27 28 27 29 33 32 34 37 39 42 41 38 43 45 49 46 44 48 47 44 41 32 27
33 33 31 33 36 33 38 32 33 34 34 30 30 31 32 32 36 41 44 41 44 42 35 44 47 47 42 39 49 46 47 43
38 34 33 34 33 38 35 39 36 34 34 35 32 29 32 33 39 45 46 43 45 52 54 54 50 51 48 47 57 48 48 51
39 34 34 37 37 38 45 48 44 38 35 33 30 31 31 36 40 46 48 48 49 49 55 59 58 58 56 57 56 69 60 51
36 35 33 36 40 39 40 40 41 40 38 35 39 35 36 41 48 48 44 48 48 49 53 57 64 68 73 79 85 90 88 88
39 36 34 33 37 36 35 40 41 38 39 40 41 42 44 50 50 48 48 49 50 54 63 66 61 64 66 74 79 77 81 93

GFSFLT2_sfc_rhum_009.txt.gz
RH
30 33 59 82 83 84 86 85 84 84 84 86 87 85 82 80 76 75 76 76 76 75 75 76 78 78 77 77 79 79 58 47
32 32 30 36 50 84 84 84 85 82 80 80 83 84 80 74 72 75 74 74 75 73 72 73 72 75 75 74 75 79 50 34
32 31 32 33 30 52 79 83 84 85 77 80 74 46 43 49 77 74 74 73 73 73 72 70 69 73 73 68 75 38 36 30
35 38 37 35 25 35 36 32 35 40 42 46 38 48 46 47 64 77 76 74 74 75 73 74 77 32 38 66 38 34 32 29
32 46 43 37 32 30 27 28 32 35 42 46 45 45 44 41 41 39 42 61 36 46 43 37 44 41 34 36 33 34 26 24
32 42 43 42 32 28 30 29 33 33 38 44 46 41 44 45 38 37 38 33 40 39 38 43 43 36 33 35 34 31 22 23
30 40 38 34 38 35 37 38 34 40 35 38 40 42 46 40 40 35 34 32 33 36 36 36 36 34 30 32 31 31 32 28
30 35 36 31 33 38 38 36 32 31 30 34 40 42 45 39 37 34 32 30 31 35 38 40 37 32 32 31 33 30 28 31
30 34 33 32 34 33 29 26 29 28 28 34 36 38 42 44 38 37 34 35 42 37 37 36 36 33 32 29 30 34 32 32
26 29 30 31 31 29 26 26 29 28 28 30 34 36 38 43 37 38 38 42 37 37 35 36 35 34 35 30 28 27 29 31
27 34 25 27 32 27 30 31 28 22 25 24 32 32 35 39 37 40 47 42 44 42 40 42 39 38 34 33 31 29 31 23
26 30 23 27 27 31 24 24 25 24 24 26 31 30 37 38 36 42 42 38 40 41 50 43 46 44 34 33 37 32 30 33
27 29 33 26 24 25 24 25 25 26 25 30 33 32 32 35 31 33 37 36 42 48 47 50 47 46 47 46 43 43 41 32
29 27 27 24 24 27 31 33 28 28 27 30 28 33 32 31 36 34 35 35 46 49 52 48 46 47 50 49 53 45 38 37
28 29 30 31 29 26 27 26 27 26 28 29 29 33 29 30 32 36 42 42 40 48 47 50 47 46 50 50 55 51 43 36
31 30 29 30 35 32 37 33 34 34 33 31 30 30 28 27 30 36 44 43 47 45 36 52 53 50 45 37 47 51 57 61
34 31 30 32 32 36 37 40 38 35 35 37 39 31 32 29 32 39 45 42 46 52 52 52 49 48 47 49 55 55 58 75
35 31 29 33 36 37 41 48 47 37 37 36 32 34 31 34 33 42 46 46 47 47 49 54 62 60 57 60 67 73 73 76
34 30 30 30 35 37 36 36 40 40 38 37 39 35 36 42 45 48 44 45 46 55 68 69 71 83 78 65 64 72 73 78
36 35 33 29 33 36 37 39 39 38 40 41 42 41 42 44 47 47 47 55 57 56 56 60 63 66 74 79 78 71 75 80

GFSFLT2_sfc_rhum_012.txt.gz
RH
45 58 76 83 86 88 89 88 88 87 86 86 85 84 83 78 76 74 73 72 72 70 71 72 71 75 79 81 81 82 80 68
43 53 54 65 76 85 88 88 87 86 84 84 86 85 84 78 78 74 71 70 69 68 69 69 68 69 74 77 79 80 68 61
45 40 48 58 61 70 84 86 86 85 83 83 83 72 74 72 74 76 71 71 70 71 71 72 74 76 78 80 80 61 55 47
46 51 52 47 29 65 66 58 70 70 64 66 65 64 62 56 68 79 79 78 79 80 80 81 81 65 68 81 75 55 50 46
48 59 55 51 50 48 51 52 56 61 69 62 66 63 70 69 76 77 86 85 76 80 72 77 61 63 58 58 54 50 52 45
48 54 57 56 52 52 54 54 55 60 60 64 69 70 72 68 67 61 63 59 60 62 63 63 62 52 49 51 51 54 48 48
45 53 55 59 53 63 63 62 62 61 58 64 65 66 72 68 66 63 62 59 59 61 59 59 60 54 52 46 45 49 48 48
48 50 54 48 53 55 61 58 59 58 61 57 58 66 69 68 66 64 62 60 62 61 59 62 62 57 54 52 47 46 46 49
45 54 52 50 50 54 55 49 45 50 54 55 52 56 62 65 67 66 64 66 64 63 62 59 61 54 55 54 53 50 52 49
74 38 48 50 52 48 46 51 53 50 54 53 55 52 53 64 66 68 68 70 68 68 67 65 64 62 62 60 52 48 48 52
38 48 49 46 49 45 48 49 50 48 48 54 54 51 59 64 65 69 70 68 70 67 62 69 69 66 57 52 58 57 51 34
39 51 53 46 49 48 44 45 46 47 51 50 50 52 54 60 59 65 67 63 64 67 72 65 67 64 49 48 55 55 51 55
46 61 50 44 44 48 50 54 48 50 46 46 47 52 52 57 58 58 60 61 66 65 66 66 64 66 64 58 57 56 63 54
40 38 44 43 40 48 50 50 49 47 49 53 50 54 51 45 56 57 58 64 66 69 73 69 66 66 67 62 63 55 52 53
38 40 42 48 50 41 45 48 49 48 47 48 50 52 47 49 54 59 63 65 67 68 70 71 71 67 68 70 68 66 59 54
42 41 39 42 48 49 52 50 52 54 58 52 49 49 53 47 50 60 65 69 69 72 56 74 75 73 72 61 73 77 88 81
47 41 38 42 45 50 56 61 61 58 61 60 56 56 54 49 53 62 69 65 68 73 73 77 79 83 79 78 74 73 73 91
48 42 38 40 46 53 54 56 58 59 61 59 55 54 54 57 54 66 68 70 70 76 79 82 85 84 83 85 84 80 78 77
45 44 41 42 44 47 55 60 62 60 60 60 59 57 60 58 62 67 67 68 66 67 76 76 76 82 83 87 88 86 77 76
45 44 42 42 49 51 57 59 58 58 62 60 63 63 64 63 64 64 68 74 74 73 75 76 76 79 83 81 90 90 88 91

GFSFLT2_sfc_rhum_015.txt.gz
RH
86 83 82 88 90 91 90 90 89 88 87 88 86 87 86 82 78 74 71 69 68 67 70 75 76 77 79 82 84 84 82 74
72 79 80 89 90 90 89 88 86 84 84 87 86 85 84 82 80 78 74 71 68 68 73 76 77 75 76 78 82 82 66 74
64 67 75 80 85 82 87 86 86 84 84 85 88 88 85 80 83 80 76 76 76 76 77 78 79 79 78 82 81 80 70 79
53 55 72 71 50 80 88 81 87 87 85 87 87 87 89 73 79 79 76 78 79 80 82 82 82 84 68 74 77 69 58 68
59 58 56 55 59 78 84 84 90 86 78 69 67 76 79 78 90 87 93 86 89 82 82 87 80 74 62 57 55 51 60 58
60 58 56 60 64 68 67 62 72 76 73 69 74 82 73 75 69 64 69 72 78 72 71 64 65 60 56 55 52 55 58 59
61 60 61 57 63 71 66 70 65 72 69 64 69 77 71 72 73 70 67 68 66 64 62 61 65 61 57 56 52 50 50 54
62 66 68 56 65 67 66 65 63 70 66 66 64 71 72 74 71 72 69 71 73 71 68 70 72 70 65 58 55 51 49 50
81 86 77 70 58 56 63 48 52 63 61 59 60 63 64 72 77 77 75 79 73 74 73 73 70 64 67 65 63 58 56 52
79 77 84 85 75 60 56 57 56 59 64 70 61 64 65 69 70 74 78 77 75 77 79 78 78 78 77 73 71 64 57 57
80 87 82 74 68 57 59 49 48 52 62 61 60 60 62 65 64 67 74 72 73 74 76 81 77 75 60 61 69 69 68 52
78 83 79 64 56 55 57 57 58 60 58 56 59 58 57 59 59 64 62 66 72 72 73 70 76 74 56 55 71 73 74 74
62 72 59 54 55 55 56 57 55 56 55 57 54 52 50 55 61 63 66 68 70 70 76 79 77 76 79 71 72 69 69 72
54 48 58 51 58 59 58 59 57 56 55 56 58 56 53 46 61 66 66 73 72 74 74 79 80 78 83 77 82 67 67 65
48 47 48 52 53 52 53 54 56 59 63 55 56 58 55 56 60 68 71 77 77 76 81 80 85 82 81 88 96 96 80 74
49 49 47 46 51 59 59 69 70 70 69 69 60 60 58 58 61 69 74 77 76 82 72 87 89 92 87 70 85 82 85 80
52 49 47 50 52 57 66 62 65 65 70 67 63 64 60 58 61 68 74 80 86 88 89 90 93 92 94 86 78 82 89 96
52 49 50 50 51 52 57 65 66 69 69 71 68 68 69 64 65 73 78 81 82 86 87 84 81 82 83 84 89 87 85 89
55 54 48 52 57 64 65 65 66 71 70 71 68 72 70 75 76 81 84 85 85 85 86 79 79 82 84 92 94 95 93 91
55 50 52 58 62 64 66 65 68 70 64 66 69 77 79 74 75 77 82 83 85 84 81 87 81 88 89 93 94 94 95 92

GFSFLT2_sfc_rhum_021.txt.gz
RH
98 97 94 93 92 92 92 90 90 89 89 88 86 86 83 80 76 70 67 66 68 71 74 76 78 80 82 83 82 80 69 92
96 96 96 95 95 91 90 89 88 88 88 86 85 84 84 83 81 78 74 70 72 75 79 81 82 83 83 82 80 72 61 76
95 96 95 95 93 88 88 86 86 88 86 84 89 91 90 87 85 82 78 77 77 80 82 84 85 84 83 78 68 67 60 62
94 93 91 92 72 90 93 87 92 91 90 91 94 93 93 85 86 85 84 84 84 84 82 84 83 90 86 74 63 57 59 60
77 81 83 85 76 95 95 96 95 93 91 93 94 92 95 96 97 94 90 73 85 78 77 74 73 80 80 76 65 60 62 60
69 78 78 80 84 89 92 93 94 95 93 87 93 87 86 81 81 82 81 84 79 79 81 77 77 75 73 74 72 68 64 63
67 78 79 73 79 88 90 89 88 90 86 82 84 79 80 82 82 80 80 83 84 81 80 79 77 74 71 73 71 71 68 64
75 76 75 74 79 80 83 83 83 84 80 79 79 80 83 80 76 72 73 80 79 79 80 77 74 74 68 68 67 71 72 69
80 86 82 76 71 74 75 74 80 78 74 75 78 79 77 73 68 67 76 74 74 74 72 72 72 68 71 71 71 71 70 71
93 86 85 78 77 76 63 69 76 78 80 78 72 68 66 67 67 74 76 74 76 74 76 73 74 76 79 75 75 73 72 72
96 94 92 89 80 77 69 71 72 74 74 70 66 65 66 71 75 78 75 76 80 77 75 80 75 74 73 72 78 78 80 70
92 93 90 77 74 69 74 63 66 69 69 65 62 63 65 63 69 76 78 76 74 74 76 76 78 83 67 67 76 76 82 80
89 88 78 61 74 67 71 78 80 83 64 56 57 58 60 69 73 74 78 76 79 78 84 84 87 89 91 76 81 79 74 72
65 61 60 60 66 82 85 83 75 68 59 58 58 62 61 62 72 75 78 81 84 87 92 94 95 93 96 96 90 76 83 70
56 56 57 63 73 71 66 65 73 74 71 66 66 66 66 72 75 79 85 89 92 94 94 92 96 94 92 94 97 97 76 79
54 54 55 58 61 60 62 64 70 78 76 71 72 71 73 71 76 79 89 91 93 95 88 95 95 96 96 84 89 92 91 80
63 59 58 60 63 67 74 70 80 80 74 70 67 69 73 68 72 77 83 86 89 90 93 93 95 96 96 97 94 93 91 98
71 68 73 69 71 71 73 76 74 71 64 62 65 74 78 74 78 84 85 86 86 89 90 88 91 93 92 95 91 92 92 94
69 67 68 69 70 70 70 71 67 63 64 68 79 83 83 75 83 86 87 86 86 89 90 91 92 95 94 97 97 97 91 88
68 63 64 69 67 67 69 68 70 69 68 75 80 83 78 76 80 86 86 86 88 90 93 94 93 95 93 95 97 96 95 91

GFSFLT2_sfc_rhum_024.txt.gz
RH
97 99 96 95 94 93 93 91 90 89 88 86 86 84 81 77 75 73 71 73 76 77 81 83 82 83 84 83 77 75 63 82
99 98 97 96 95 92 91 90 88 87 87 86 85 83 81 80 79 77 78 77 78 79 84 85 86 87 86 82 73 65 58 62
97 97 96 95 93 91 89 87 87 86 86 84 88 90 89 86 84 84 84 83 84 83 83 85 83 81 82 83 69 65 59 60
95 95 95 94 79 93 94 90 93 93 92 92 93 93 93 87 89 86 81 73 76 74 73 71 72 81 82 76 73 69 65 62
91 93 94 94 84 97 97 98 97 95 92 93 94 93 96 97 93 83 83 75 78 74 74 76 77 80 80 79 76 74 73 68
82 86 86 90 89 96 95 97 97 97 95 92 96 92 88 84 85 84 85 85 79 81 83 79 74 70 71 72 70 73 74 71
77 83 84 82 86 92 94 95 95 93 94 87 88 85 86 85 84 80 82 80 82 80 76 71 71 69 67 68 69 73 74 72
81 86 85 77 81 88 90 92 91 93 87 84 83 84 86 79 73 74 78 78 80 79 75 73 71 70 65 67 70 72 72 72
89 90 86 84 78 83 89 76 83 81 80 83 81 80 73 70 74 78 79 78 74 73 71 70 68 65 67 71 72 73 72 75
93 91 90 91 89 89 74 88 81 82 80 77 71 70 70 75 76 79 78 76 76 75 75 74 73 74 78 78 76 75 75 78
96 96 92 92 94 84 78 79 77 71 72 71 71 69 70 72 71 76 71 75 78 75 74 78 75 79 77 75 77 77 81 65
97 95 95 95 85 83 83 71 73 76 69 73 61 61 65 65 66 75 77 75 80 82 81 82 82 88 73 71 80 81 82 77
93 96 95 70 84 79 82 78 85 91 69 60 60 62 65 72 76 78 82 83 86 87 90 91 90 94 91 81 86 81 80 76
88 83 75 70 81 88 87 90 75 64 64 70 68 69 70 69 77 81 85 83 84 91 92 93 93 95 94 96 90 82 79 62
60 62 63 71 78 80 77 78 78 74 72 71 72 71 71 72 76 82 86 87 88 94 94 94 97 94 94 93 93 95 84 76
63 62 64 64 65 65 68 75 81 86 77 75 74 71 72 70 76 78 83 87 90 93 89 95 94 97 94 84 90 91 85 75
68 64 65 68 71 75 80 86 84 78 74 68 66 68 69 72 76 79 82 86 88 88 91 91 95 95 94 95 95 94 93 90
73 68 73 72 73 73 77 76 75 73 72 67 72 80 86 77 78 84 85 86 86 89 89 89 92 94 94 94 97 96 97 98
73 73 73 71 69 70 72 72 71 68 69 73 76 84 89 79 85 87 88 86 86 89 91 91 92 94 94 94 96 96 96 96
68 64 69 69 69 70 72 70 74 74 73 77 81 85 85 77 81 87 86 85 87 89 92 93 90 93 91 93 96 90 84 90